Location: Gebenbach
(49.5378°N, 11.8735°E)
Time: 03:20:22
(UTC+00:00)

FALCON 9 DEB - Pass Details

Date: 29 October 2020
Orbit: 383 x 397 km, 53.0° (Epoch: 24 November)

Event Time Altitude Azimuth Distance (km) Brightness Sun altitude
Rises 16:25:09 0° 231° (SW) 2,305 8.2 -5.5°
Reaches altitude 10° 16:27:15 10° 227° (SW) 1,448 6.9 -5.8°
Maximum altitude 16:30:25 52° 149° (SSE) 503 3.3 -6.3°
Drops below altitude 10° 16:33:35 10° 72° (ENE) 1,449 5.1 -6.8°
Enters shadow 16:33:45 - 72° (ENE) 1,519 5.2 -6.9°
